Location: Newark
(40.9833°N, 0.0333°W)
Time: 01:24:06
(UTC+00:00)

Altair - Pass Details

Date: 02 November 2020
Orbit: 1502 x 1682 km, 47.2° (Epoch: 02 December)

Event Time Altitude Azimuth Distance (km) Brightness Sun altitude
Rises 03:45:03 0° 234° (SW) 4,625 - -32.0°
Reaches altitude 10° 03:48:02 10° 233° (SW) 3,650 - -31.4°
Exits shadow 03:54:36 53° 223° (SW) 1,811 7.5 -30.2°
Maximum altitude 03:57:12 79° 148° (SSE) 1,550 7.4 -29.7°
Drops below altitude 10° 04:06:40 10° 64° (ENE) 3,757 10.4 -27.9°
Sets 04:09:47 0° 63° (ENE) 4,767 11.1 -27.3°
